[Date Prev][Date Next][Thread Prev][Thread Next] - [Date Index][Thread Index][Author Index]

2 Line ISS Keps 11-15



ISS
1 25544U 98067A   05319.03957176  .00015922  00000-0  12232-3 0  7547
2 25544 051.6455 207.7231 0008201 283.4655 276.4625 15.72207076399420
----
Via the sarex mailing list at AMSAT.ORG courtesy of AMSAT-NA.
To unsubscribe, send "unsubscribe sarex" to Majordomo@amsat.org



AMSAT Top AMSAT Home